Time,TemperatureF,DewpointF,PressureIn,WindDirection,WindDirectionDegrees,WindSpeedMPH,WindSpeedGustMPH,Humidity,HourlyPrecipIn,Conditions,Clouds,dailyrainin,SoftwareType,DateUTC
2013-02-18 00:10:00,34.1,18.0,30.32,South,176,0.0,-999.0,53,-99.99,,,0.00,weatherlink.com 1.10,2013-02-18 05:10:00,
2013-02-18 00:25:00,34.4,19.0,30.33,South,176,0.0,-999.0,53,-99.99,,,0.00,weatherlink.com 1.10,2013-02-18 05:25:00,
2013-02-18 00:40:00,34.3,19.0,30.34,South,176,0.0,-999.0,53,-99.99,,,0.00,weatherlink.com 1.10,2013-02-18 05:40:00,
2013-02-18 00:55:00,34.3,18.0,30.34,South,176,0.0,-999.0,52,-99.99,,,0.00,weatherlink.com 1.10,2013-02-18 05:55:00,
2013-02-18 01:10:00,34.3,19.0,30.34,South,176,0.0,-999.0,54,-99.99,,,0.00,weatherlink.com 1.10,2013-02-18 06:10:00,
2013-02-18 01:25:00,34.0,19.0,30.34,South,176,0.0,-999.0,55,-99.99,,,0.00,weatherlink.com 1.10,2013-02-18 06:25:00,
2013-02-18 01:40:00,34.0,19.0,30.34,South,176,0.0,-999.0,54,-99.99,,,0.00,weatherlink.com 1.10,2013-02-18 06:40:00,
2013-02-18 01:55:00,34.1,19.0,30.34,South,176,0.0,-999.0,55,-99.99,,,0.00,weatherlink.com 1.10,2013-02-18 06:55:00,
2013-02-18 02:10:00,34.4,20.0,30.34,South,177,0.0,-999.0,56,-99.99,,,0.00,weatherlink.com 1.10,2013-02-18 07:10:00,
2013-02-18 02:25:00,34.3,20.0,30.33,South,177,0.0,-999.0,56,-99.99,,,0.00,weatherlink.com 1.10,2013-02-18 07:25:00,
2013-02-18 02:40:00,34.0,20.0,30.32,South,177,0.0,-999.0,56,-99.99,,,0.00,weatherlink.com 1.10,2013-02-18 07:40:00,
2013-02-18 02:55:00,33.8,20.0,30.33,South,177,0.0,-999.0,57,-99.99,,,0.00,weatherlink.com 1.10,2013-02-18 07:55:00,
2013-02-18 03:10:00,33.5,19.0,30.33,South,177,0.0,-999.0,56,-99.99,,,0.00,weatherlink.com 1.10,2013-02-18 08:10:00,
2013-02-18 03:25:00,33.7,19.0,30.34,South,177,0.0,-999.0,55,-99.99,,,0.00,weatherlink.com 1.10,2013-02-18 08:25:00,
2013-02-18 03:40:00,34.0,19.0,30.34,South,177,0.0,-999.0,54,-99.99,,,0.00,weatherlink.com 1.10,2013-02-18 08:40:00,
2013-02-18 03:55:00,33.8,19.0,30.34,South,177,0.0,-999.0,55,-99.99,,,0.00,weatherlink.com 1.10,2013-02-18 08:55:00,
2013-02-18 04:10:00,33.5,19.0,30.34,South,177,0.0,-999.0,56,-99.99,,,0.00,weatherlink.com 1.10,2013-02-18 09:10:00,
2013-02-18 04:25:00,32.8,19.0,30.34,South,177,0.0,-999.0,58,-99.99,,,0.00,weatherlink.com 1.10,2013-02-18 09:25:00,
2013-02-18 04:40:00,32.4,19.0,30.34,South,177,0.0,-999.0,59,-99.99,,,0.00,weatherlink.com 1.10,2013-02-18 09:40:00,
2013-02-18 04:55:00,31.9,19.0,30.34,South,177,0.0,-999.0,60,-99.99,,,0.00,weatherlink.com 1.10,2013-02-18 09:55:00,
2013-02-18 05:10:00,31.9,20.0,30.35,South,177,0.0,-999.0,61,-99.99,,,0.00,weatherlink.com 1.10,2013-02-18 10:10:00,
2013-02-18 05:25:00,32.2,20.0,30.35,South,177,0.0,-999.0,61,-99.99,,,0.00,weatherlink.com 1.10,2013-02-18 10:25:00,
2013-02-18 05:40:00,32.4,20.0,30.36,South,177,0.0,-999.0,61,-99.99,,,0.00,weatherlink.com 1.10,2013-02-18 10:40:00,
2013-02-18 05:55:00,32.2,20.0,30.36,South,177,0.0,-999.0,62,-99.99,,,0.00,weatherlink.com 1.10,2013-02-18 10:55:00,
2013-02-18 06:10:00,32.1,20.0,30.37,South,177,0.0,-999.0,62,-99.99,,,0.00,weatherlink.com 1.10,2013-02-18 11:10:00,
2013-02-18 06:25:00,32.5,21.0,30.37,South,177,0.0,-999.0,63,-99.99,,,0.00,weatherlink.com 1.10,2013-02-18 11:25:00,
2013-02-18 06:40:00,32.5,21.0,30.38,South,177,0.0,-999.0,63,-99.99,,,0.00,weatherlink.com 1.10,2013-02-18 11:40:00,
2013-02-18 06:55:00,31.9,20.0,30.38,South,177,0.0,-999.0,62,-99.99,,,0.00,weatherlink.com 1.10,2013-02-18 11:55:00,
2013-02-18 07:10:00,31.8,20.0,30.38,South,177,0.0,-999.0,63,-99.99,,,0.00,weatherlink.com 1.10,2013-02-18 12:10:00,
2013-02-18 07:25:00,31.6,20.0,30.39,South,177,0.0,-999.0,63,-99.99,,,0.00,weatherlink.com 1.10,2013-02-18 12:25:00,
2013-02-18 07:40:00,31.8,20.0,30.39,South,177,0.0,-999.0,63,-99.99,,,0.00,weatherlink.com 1.10,2013-02-18 12:40:00,
2013-02-18 07:55:00,32.7,21.0,30.39,South,177,0.0,-999.0,63,-99.99,,,0.00,weatherlink.com 1.10,2013-02-18 12:55:00,
2013-02-18 08:10:00,33.7,22.0,30.40,South,177,0.0,-999.0,62,-99.99,,,0.00,weatherlink.com 1.10,2013-02-18 13:10:00,
2013-02-18 08:25:00,34.6,22.0,30.40,South,177,0.0,-999.0,60,-99.99,,,0.00,weatherlink.com 1.10,2013-02-18 13:25:00,
2013-02-18 08:40:00,35.6,22.0,30.41,South,177,0.0,-999.0,58,-99.99,,,0.00,weatherlink.com 1.10,2013-02-18 13:40:00,
2013-02-18 08:55:00,37.2,22.0,30.41,South,177,0.0,-999.0,55,-99.99,,,0.00,weatherlink.com 1.10,2013-02-18 13:55:00,
2013-02-18 09:10:00,38.6,23.0,30.41,South,177,0.0,-999.0,53,-99.99,,,0.00,weatherlink.com 1.10,2013-02-18 14:10:00,
2013-02-18 09:25:00,40.1,24.0,30.41,South,177,0.0,-999.0,52,-99.99,,,0.00,weatherlink.com 1.10,2013-02-18 14:25:00,
2013-02-18 09:40:00,41.6,24.0,30.41,South,177,0.0,-999.0,49,-99.99,,,0.00,weatherlink.com 1.10,2013-02-18 14:40:00,
2013-02-18 09:55:00,43.5,22.0,30.41,South,177,0.0,-999.0,43,-99.99,,,0.00,weatherlink.com 1.10,2013-02-18 14:55:00,
2013-02-18 10:10:00,46.0,18.0,30.41,South,182,0.0,-999.0,33,-99.99,,,0.00,weatherlink.com 1.10,2013-02-18 15:10:00,
2013-02-18 10:26:00,48.3,11.0,30.42,WNW,284,0.0,-999.0,22,-99.99,,,0.00,weatherlink.com 1.10,2013-02-18 15:26:00,
2013-02-18 10:41:00,51.1,12.0,30.41,WNW,291,3.0,-999.0,21,-99.99,,,0.00,weatherlink.com 1.10,2013-02-18 15:41:00,
2013-02-18 10:56:00,52.6,10.0,30.42,ESE,110,1.0,-999.0,18,-99.99,,,0.00,weatherlink.com 1.10,2013-02-18 15:56:00,
2013-02-18 11:11:00,53.9,12.0,30.42,South,179,0.0,-999.0,19,-99.99,,,0.00,weatherlink.com 1.10,2013-02-18 16:11:00,
2013-02-18 11:26:00,54.4,13.0,30.43,SE,126,1.0,-999.0,19,-99.99,,,0.00,weatherlink.com 1.10,2013-02-18 16:26:00,
2013-02-18 11:41:00,55.6,10.0,30.43,ENE,77,5.0,-999.0,16,-99.99,,,0.00,weatherlink.com 1.10,2013-02-18 16:41:00,
2013-02-18 11:56:00,55.0,12.0,30.43,NNE,12,2.0,-999.0,18,-99.99,,,0.00,weatherlink.com 1.10,2013-02-18 16:56:00,
2013-02-18 12:11:00,56.7,9.0,30.43,NNE,26,0.0,-999.0,15,-99.99,,,0.00,weatherlink.com 1.10,2013-02-18 17:11:00,
2013-02-18 12:26:00,56.7,15.0,30.43,East,85,1.0,-999.0,19,-99.99,,,0.00,weatherlink.com 1.10,2013-02-18 17:26:00,
2013-02-18 12:41:00,57.2,20.0,30.42,WSW,257,2.0,-999.0,23,-99.99,,,0.00,weatherlink.com 1.10,2013-02-18 17:41:00,
2013-02-18 12:56:00,58.7,18.0,30.41,NE,35,1.0,-999.0,20,-99.99,,,0.00,weatherlink.com 1.10,2013-02-18 17:56:00,
2013-02-18 13:11:00,58.6,17.0,30.40,NW,321,1.0,-999.0,20,-99.99,,,0.00,weatherlink.com 1.10,2013-02-18 18:11:00,
2013-02-18 13:26:00,58.7,20.0,30.40,WNW,299,0.0,-999.0,22,-99.99,,,0.00,weatherlink.com 1.10,2013-02-18 18:26:00,
2013-02-18 13:41:00,59.8,17.0,30.39,SSE,153,0.0,-999.0,19,-99.99,,,0.00,weatherlink.com 1.10,2013-02-18 18:41:00,
2013-02-18 13:56:00,60.4,14.0,30.38,ENE,74,1.0,-999.0,16,-99.99,,,0.00,weatherlink.com 1.10,2013-02-18 18:56:00,
2013-02-18 14:11:00,60.9,17.0,30.38,NW,321,3.0,-999.0,18,-99.99,,,0.00,weatherlink.com 1.10,2013-02-18 19:11:00,
2013-02-18 14:26:00,61.0,17.0,30.37,WNW,302,1.0,-999.0,18,-99.99,,,0.00,weatherlink.com 1.10,2013-02-18 19:26:00,
2013-02-18 14:41:00,60.5,17.0,30.37,NW,322,1.0,-999.0,18,-99.99,,,0.00,weatherlink.com 1.10,2013-02-18 19:41:00,
2013-02-18 14:56:00,60.7,18.0,30.36,NW,318,1.0,-999.0,19,-99.99,,,0.00,weatherlink.com 1.10,2013-02-18 19:56:00,
2013-02-18 15:11:00,58.9,16.0,30.37,NNW,335,2.0,-999.0,19,-99.99,,,0.00,weatherlink.com 1.10,2013-02-18 20:11:00,
2013-02-18 15:26:00,58.9,18.0,30.36,East,79,0.0,-999.0,20,-99.99,,,0.00,weatherlink.com 1.10,2013-02-18 20:26:00,
2013-02-18 15:41:00,58.9,16.0,30.36,NW,309,1.0,-999.0,19,-99.99,,,0.00,weatherlink.com 1.10,2013-02-18 20:41:00,
2013-02-18 15:56:00,59.5,16.0,30.36,SW,227,0.0,-999.0,18,-99.99,,,0.00,weatherlink.com 1.10,2013-02-18 20:56:00,
2013-02-18 16:11:00,60.1,16.0,30.36,NW,305,1.0,-999.0,18,-99.99,,,0.00,weatherlink.com 1.10,2013-02-18 21:11:00,
2013-02-18 16:26:00,59.9,16.0,30.36,ESE,116,0.0,-999.0,18,-99.99,,,0.00,weatherlink.com 1.10,2013-02-18 21:26:00,
2013-02-18 16:41:00,59.6,16.0,30.35,NE,47,0.0,-999.0,18,-99.99,,,0.00,weatherlink.com 1.10,2013-02-18 21:41:00,
2013-02-18 16:56:00,58.1,16.0,30.35,NE,40,0.0,-999.0,19,-99.99,,,0.00,weatherlink.com 1.10,2013-02-18 21:56:00,
2013-02-18 17:11:00,57.5,15.0,30.35,West,260,0.0,-999.0,19,-99.99,,,0.00,weatherlink.com 1.10,2013-02-18 22:11:00,
2013-02-18 17:26:00,57.2,16.0,30.35,SSE,164,0.0,-999.0,20,-99.99,,,0.00,weatherlink.com 1.10,2013-02-18 22:26:00,
2013-02-18 17:41:00,56.3,20.0,30.34,SSE,153,0.0,-999.0,24,-99.99,,,0.00,weatherlink.com 1.10,2013-02-18 22:41:00,
2013-02-18 17:56:00,55.0,20.0,30.34,SSE,167,0.0,-999.0,25,-99.99,,,0.00,weatherlink.com 1.10,2013-02-18 22:56:00,
2013-02-18 18:11:00,53.6,20.0,30.34,SSE,167,0.0,-999.0,27,-99.99,,,0.00,weatherlink.com 1.10,2013-02-18 23:11:00,
2013-02-18 18:26:00,52.3,22.0,30.34,SSE,167,0.0,-999.0,31,-99.99,,,0.00,weatherlink.com 1.10,2013-02-18 23:26:00,
2013-02-18 18:41:00,50.5,23.0,30.33,SSE,167,0.0,-999.0,34,-99.99,,,0.00,weatherlink.com 1.10,2013-02-18 23:41:00,
2013-02-18 18:56:00,49.1,23.0,30.33,SSE,167,0.0,-999.0,36,-99.99,,,0.00,weatherlink.com 1.10,2013-02-18 23:56:00,
2013-02-18 19:11:00,47.3,23.0,30.32,SSE,167,0.0,-999.0,39,-99.99,,,0.00,weatherlink.com 1.10,2013-02-19 00:11:00,
2013-02-18 19:26:00,46.5,25.0,30.32,SSE,167,0.0,-999.0,43,-99.99,,,0.00,weatherlink.com 1.10,2013-02-19 00:26:00,
2013-02-18 19:41:00,45.4,26.0,30.32,SSE,167,0.0,-999.0,46,-99.99,,,0.00,weatherlink.com 1.10,2013-02-19 00:41:00,
2013-02-18 19:56:00,44.3,25.0,30.32,SSE,167,0.0,-999.0,47,-99.99,,,0.00,weatherlink.com 1.10,2013-02-19 00:56:00,
2013-02-18 20:11:00,43.3,25.0,30.32,SSE,167,0.0,-999.0,49,-99.99,,,0.00,weatherlink.com 1.10,2013-02-19 01:11:00,
2013-02-18 20:26:00,42.8,25.0,30.31,SSE,167,0.0,-999.0,50,-99.99,,,0.00,weatherlink.com 1.10,2013-02-19 01:26:00,
2013-02-18 20:41:00,42.3,26.0,30.31,SSE,167,0.0,-999.0,53,-99.99,,,0.00,weatherlink.com 1.10,2013-02-19 01:41:00,
2013-02-18 20:56:00,41.5,26.0,30.30,SSE,167,0.0,-999.0,55,-99.99,,,0.00,weatherlink.com 1.10,2013-02-19 01:56:00,
2013-02-18 21:11:00,41.2,26.0,30.30,SSE,167,0.0,-999.0,56,-99.99,,,0.00,weatherlink.com 1.10,2013-02-19 02:11:00,
2013-02-18 21:26:00,41.2,27.0,30.29,SSE,167,0.0,-999.0,58,-99.99,,,0.00,weatherlink.com 1.10,2013-02-19 02:26:00,
2013-02-18 21:41:00,41.6,28.0,30.29,SSE,167,0.0,-999.0,59,-99.99,,,0.00,weatherlink.com 1.10,2013-02-19 02:41:00,
2013-02-18 21:56:00,42.1,29.0,30.28,SSE,167,0.0,-999.0,60,-99.99,,,0.00,weatherlink.com 1.10,2013-02-19 02:56:00,
2013-02-18 22:11:00,42.3,29.0,30.28,SSE,167,0.0,-999.0,60,-99.99,,,0.00,weatherlink.com 1.10,2013-02-19 03:11:00,
2013-02-18 22:26:00,42.6,30.0,30.28,SSE,167,0.0,-999.0,61,-99.99,,,0.00,weatherlink.com 1.10,2013-02-19 03:26:00,
2013-02-18 22:41:00,42.8,30.0,30.26,SSE,167,0.0,-999.0,62,-99.99,,,0.00,weatherlink.com 1.10,2013-02-19 03:41:00,
2013-02-18 22:56:00,42.9,31.0,30.26,SSE,167,0.0,-999.0,62,-99.99,,,0.00,weatherlink.com 1.10,2013-02-19 03:56:00,
2013-02-18 23:11:00,42.8,31.0,30.25,SSE,167,0.0,-999.0,63,-99.99,,,0.00,weatherlink.com 1.10,2013-02-19 04:11:00,
2013-02-18 23:26:00,42.9,31.0,30.26,SSE,167,0.0,-999.0,64,-99.99,,,0.00,weatherlink.com 1.10,2013-02-19 04:26:00,
2013-02-18 23:41:00,42.9,32.0,30.25,SSE,167,0.0,-999.0,65,-99.99,,,0.00,weatherlink.com 1.10,2013-02-19 04:41:00,
2013-02-18 23:56:00,43.1,32.0,30.24,SSE,167,0.0,-999.0,66,-99.99,,,0.00,weatherlink.com 1.10,2013-02-19 04:56:00,